Simultaneous Nadir Overpasses (SNOs) Predictions

Prediction of SNOs between GOES-17 and METOP-B Satellite Orbit:

Table of predicted SNOs for the next 14.0 days since TLE Epoch: 5/9/2025
Index Date Time (GOES-17) GOES-17 Lat,Lon METOP-B Lat,Lon Distance(km) Time Diff (sec)
1 05/10/2025 15:46:37 0.03,-104.46 -0.94,-100.12 494.69 80
2 05/12/2025 04:08:18 -0.03,-104.41 -0.12,-104.73 37.34 80
3 05/14/2025 16:06:31 0.02,-104.49 -0.01,-104.34 17.58 80
4 05/17/2025 04:02:12 -0.01,-104.44 0.12,-103.98 53.77 80
5 05/18/2025 16:21:04 0.00,-104.52 0.90,-108.56 460.44 80
6 05/19/2025 16:03:04 0.00,-104.53 -0.21,-103.58 108.24 80
7 05/21/2025 04:22:05 0.00,-104.47 -0.83,-108.19 423.71 80
8 05/22/2025 03:58:45 0.00,-104.48 0.28,-103.21 145.05 80
9 05/23/2025 16:17:36 -0.00,-104.56 0.73,-107.79 368.86 80
